CW0498 Weather Reports


Display with metric or nautical units.
time (UTC)temp
F
wind
direction
speed
MPH
gust
MPH
rain 1hr
in
rain 24hr
in
rain mn
in
humidity
%
barometer
mb
20260505041543 54 0 0.0 0.0 0.00 0.00 0.00 79 1015.6
20260505040042 55 0 0.0 0.0 0.00 0.00 0.00 77 1015.6
20260505034537 55 0 0.0 0.0 0.00 0.00 0.00 76 1015.7
20260505033038 56 0 0.0 0.0 0.00 0.00 0.00 75 1015.8
20260505031537 57 0 0.0 0.0 0.00 0.00 0.00 73 1015.9
20260505030045 57 0 0.0 0.0 0.00 0.00 0.00 72 1015.9
20260505024540 58 0 0.0 0.0 0.00 0.00 0.00 71 1015.6
20260505023053 59 0 0.0 0.0 0.00 0.00 0.00 68 1015.6
20260505021544 60 0 0.0 0.0 0.00 0.00 0.00 68 1015.5
20260505020045 61 0 0.0 0.0 0.00 0.00 0.00 62 1015.3
20260505014545 62 0 0.0 0.0 0.00 0.00 0.00 64 1015.2
20260505013059 63 0 0.0 0.0 0.00 0.00 0.00 59 1015.2
20260505011540 64 0 0.0 0.0 0.00 0.00 0.00 57 1015.1
20260505010039 65 0 0.0 0.0 0.00 0.00 0.00 56 1014.9
20260505004549 67 0 0.0 0.0 0.00 0.00 0.00 54 1014.9
20260505003046 68 0 0.0 0.0 0.00 0.00 0.00 50 1014.7
20260505001546 70 0 0.0 0.0 0.00 0.00 0.00 48 1014.7
20260505000054 71 0 0.0 2.0 0.00 0.00 0.00 44 1014.8
20260504234551 72 0 0.0 2.0 0.00 0.00 0.00 45 1014.6
20260504233054 73 0 0.0 1.0 0.00 0.00 0.00 45 1014.6
20260504231546 75 0 0.0 2.0 0.00 0.00 0.00 43 1014.6
20260504230046 76 141 0.0 4.0 0.00 0.00 0.00 40 1014.6
20260504224543 79 0 0.0 2.0 0.00 0.00 0.00 39 1014.7
20260504223058 78 0 0.0 1.0 0.00 0.00 0.00 41 1014.7
20260504221539 76 0 0.0 4.0 0.00 0.00 0.00 41 1014.7
20260504220050 76 0 0.0 1.0 0.00 0.00 0.00 45 1014.7
20260504214547 76 209 0.0 1.0 0.00 0.00 0.00 44 1014.7
20260504213051 77 160 0.0 2.0 0.00 0.00 0.00 43 1014.4
20260504211543 78 0 0.0 1.0 0.00 0.00 0.00 44 1014.6
20260504210043 79 0 0.0 2.0 0.00 0.00 0.00 43 1014.7
20260504204551 81 245 0.0 2.0 0.00 0.00 0.00 42 1014.8
20260504203041 80 274 0.0 2.0 0.00 0.00 0.00 39 1014.9
20260504201600 81 0 0.0 2.0 0.00 0.00 0.00 40 1014.9
20260504200047 81 0 0.0 1.0 0.00 0.00 0.00 40 1015.3
20260504194550 81 51 1.0 4.0 0.00 0.00 0.00 38 1015.5
20260504193044 81 201 0.0 2.0 0.00 0.00 0.00 40 1015.6
20260504191554 79 84 0.0 2.0 0.00 0.00 0.00 38 1015.8
20260504190058 79 0 0.0 4.0 0.00 0.00 0.00 42 1015.9
20260504184603 78 236 0.0 2.0 0.00 0.00 0.00 44 1016.2
20260504183046 77 260 1.0 3.0 0.00 0.00 0.00 43 1016.3
20260504181548 78 0 0.0 2.0 0.00 0.00 0.00 45 1016.4
20260504180045 76 291 0.0 2.0 0.00 0.00 0.00 46 1016.6
20260504174546 75 0 1.0 2.0 0.00 0.00 0.00 49 1016.9
20260504173038 74 0 0.0 2.0 0.00 0.00 0.00 49 1017.1
20260504171550 73 0 0.0 1.0 0.00 0.00 0.00 52 1017.3
20260504081537 43 0 0.0 0.0 0.00 0.00 0.00 92 1018.1
20260504044545 48 0 0.0 0.0 0.00 0.00 0.00 85 1019.2